+ View the NASA Portal
+ Center for Near-Earth Object Studies
IMPORTANT:
The SSD Announcement email list is now available. Major changes are coming in the near future, including possible hostname and/or URL changes. To be notified of such changes, subscribe to this email list.
Please visit
this page
for more details.
Don't show this message again
JPL Small-Body Database Browser
Search:
[
help
]
117073 (2004 KP14)
Classification:
Main-belt Asteroid
SPK-ID:
2117073
[
Ephemeris
|
Orbit Diagram
|
Orbital Elements
|
Mission Design
|
Physical Parameters
|
Discovery Circumstances
|
Close-Approach Data
]
[ show orbit diagram ]
Orbital Elements at Epoch 2458600.5 (2019-Apr-27.0) TDB
Reference:
JPL 17
(heliocentric ecliptic J2000)
Element
Value
Uncertainty (1-sigma)
Units
e
.172095099163008
4.0287e-08
a
3.150075038446297
2.5571e-08
au
q
2.607962562333965
1.3195e-07
au
i
14.91248760466388
6.6783e-06
deg
node
179.7094539163752
1.8843e-05
deg
peri
119.184878377776
2.8514e-05
deg
M
196.8812083488008
2.036e-05
deg
t
p
2459525.797248410939
(2021-Nov-07.29724841)
0.00011982
TDB
period
2042.113027297484
5.59
2.4865e-05
6.808e-08
d
yr
n
.1762879895420976
2.1465e-09
deg/d
Q
3.692187514558629
2.9971e-08
au
Orbit Determination Parameters
# obs. used (total)
411
data-arc span
7602 days (20.81 yr)
first obs. used
1998-04-21
last obs. used
2019-02-12
planetary ephem.
DE431
SB-pert. ephem.
SB431-N16
condition code
0
norm. resid. RMS
.544
source
ORB
producer
Otto Matic
solution date
2019-Jul-13 18:31:57
Additional Information
Earth MOID
= 1.63102 au
Jupiter MOID
= 1.87677 au
T_jup
= 3.133
[ show covariance matrix ]
[
Ephemeris
|
Orbit Diagram
|
Orbital Elements
|
Mission Design
|
Physical Parameters
|
Discovery Circumstances
|
Close-Approach Data
]
Physical Parameter Table
Parameter
Symbol
Value
Units
Sigma
Reference
Notes
absolute magnitude
H
15.0
n/a
MPO426739
117073 (2004 KP14)
Discovered 2004-May-23 by Spacewatch at Kitt Peak
Reference:
20051019/Numbers.arc
Last Updated:
2005-10-26
[ show close-approach data ]
Alternate Designations
2004 KP14
= 1998 HT156
[
Ephemeris
|
Orbit Diagram
|
Orbital Elements
|
Mission Design
|
Physical Parameters
|
Discovery Circumstances
|
Close-Approach Data
]
2019-Dec-10 13:35 UT
(server date/time)
Site Manager:
Ryan S. Park
Webmaster
:
Alan B. Chamberlin